Agua Escondida, Mexico

11:15 AM CDT on October 21, 2017 (GMT -0500)
Xoxocotlan International | | Change Station

Elev 4987 ft 17.00 °N, 96.73 °W | Updated 32 minutes ago

Clear
Clear
70 °F
Feels Like 70 °F
N
6
Wind Variable Wind from ENE

Today
High -- | Low -- °F
--% Chance of Precip.
Yesterday
High -- | Low -- °F
Precip. -- in
Pressure 30.24 in
Visibility 10.0 miles
Clouds Scattered Clouds 1200 ft
Scattered Clouds 21000 ft
Dew Point 55 °F
Humidity 60%
Rainfall 0.00 in
Snow Depth Not available.
7:18 AM 6:59 PM
Waxing Crescent, 4% visible
METAR MMOX 211543Z 06005KT 10SM SCT012 SCT210 21/13 A3024 RMK 8/106 HZY
Pressure 30.24 in
Visibility 10.0 miles
Clouds Scattered Clouds 1200 ft
Scattered Clouds 21000 ft
Dew Point 55 °F
Humidity 60%
Rainfall 0.00 in
Snow Depth Not available.
7:18 AM 6:59 PM
Waxing Crescent, 4% visible
METAR MMOX 211543Z 06005KT 10SM SCT012 SCT210 21/13 A3024 RMK 8/106 HZY

Get Severe Weather Alerts

Thanks for signing up!

Be on the lookout for a verification email in your inbox.

You'll start receiving the daily forecast at 6 AM.

×

10-Day Weather Forecast

No radar image for this location.
×

Almanac

Astronomy

Oct. 21, 2017 Rise Set
Actual Time
Civil Twilight
Nautical Twilight
Astronomical Twilight
Moon
Length of Visible Light
Length of Day
Tomorrow will be .
, % of the Moon is Illuminated

Today's Extremes

Country Highs Country Lows

Community

WunderPhotos

Category 6

Welcome to Category 6. This is the collective home for Weather Underground's featured writeups by Dr. Jeff Masters (right), Bob Henson (left), Chris Burt, and other regular contributors.

Nearby

Air Quality

  Air Quality AQ Index Pollutant
Not available.

Snow Depth

Station Depth Elevation

Earthquake Activity

City Distance Mag. Time & Date
Minimum magnitude displayed is 2.5.

Coastal Water Temperatures

Place Temperature

Stations

Nearby Weather Stations

Station Location Temp. Windchill Dew Point Humidity Wind Precip. Elev Updated Type